Location: Gamarra
(10.0780°N, 67.4929°W)
Time: 09:45:07
(UTC+00:00)

SKYMED 3 - Pass Details

Date: 13 April 2024
Orbit: 565 x 585 km, 97.9° (Epoch: 23 May)

Event Time Altitude Azimuth Distance (km) Brightness Sun altitude
Rises 23:03:12 0° 11° (NNE) 2,769 7.9 -6.3°
Reaches altitude 10° 23:05:20 10° 12° (NNE) 1,876 7.0 -6.8°
Maximum altitude 23:09:25 89° 107° (ESE) 581 4.4 -7.8°
Drops below altitude 10° 23:13:31 10° 191° (SSW) 1,891 7.1 -8.8°
Sets 23:15:40 0° 191° (SSW) 2,794 7.9 -9.3°
